Total_Precipitation_Accumulation
0.23 0.30 0.20 0.09 0.06 0.04 0.04 0.04 0.03 0.01 0.00 0.01 0.00 0.00 0.00 0.00 0.00 0.00 0.00 0.00 0.00 0.00 0.00 0.00 0.00 0.00 0.00 0.00 0.00 0.00 0.00 0.01 0.05 0.09 0.10 0.12 0.13 0.17 0.18 0.16 0.14 0.11 0.07 0.03
0.28 0.22 0.11 0.07 0.08 0.07 0.08 0.09 0.06 0.02 0.01 0.02 0.01 0.00 0.00 0.00 0.00 0.00 0.00 0.00 0.00 0.00 0.00 0.00 0.00 0.00 0.00 0.00 0.00 0.00 0.00 0.01 0.02 0.03 0.07 0.16 0.23 0.26 0.26 0.23 0.18 0.15 0.11 0.08
0.23 0.14 0.11 0.12 0.13 0.11 0.08 0.08 0.07 0.06 0.04 0.04 0.04 0.01 0.00 0.00 0.00 0.00 0.00 0.00 0.00 0.00 0.00 0.00 0.00 0.00 0.00 0.00 0.00 0.00 0.00 0.00 0.02 0.04 0.11 0.17 0.21 0.21 0.19 0.15 0.13 0.15 0.15 0.13
0.23 0.17 0.19 0.19 0.15 0.13 0.09 0.04 0.07 0.09 0.11 0.10 0.07 0.04 0.00 0.00 0.00 0.00 0.00 0.00 0.00 0.00 0.00 0.00 0.00 0.00 0.00 0.00 0.00 0.00 0.00 0.00 0.01 0.04 0.06 0.09 0.10 0.10 0.11 0.13 0.15 0.17 0.16 0.16
0.30 0.25 0.27 0.25 0.12 0.12 0.10 0.06 0.10 0.16 0.19 0.19 0.12 0.07 0.01 0.00 0.00 0.00 0.00 0.00 0.00 0.00 0.00 0.00 0.00 0.00 0.00 0.00 0.00 0.00 0.00 0.00 0.01 0.02 0.03 0.07 0.10 0.10 0.11 0.12 0.12 0.13 0.13 0.14
0.27 0.26 0.31 0.25 0.12 0.15 0.18 0.21 0.23 0.26 0.38 0.35 0.15 0.10 0.04 0.00 0.00 0.00 0.00 0.00 0.00 0.00 0.00 0.00 0.00 0.00 0.00 0.00 0.00 0.00 0.00 0.00 0.01 0.01 0.02 0.04 0.06 0.08 0.07 0.07 0.08 0.10 0.11 0.11
0.51 0.42 0.33 0.33 0.32 0.34 0.39 0.56 0.67 0.57 0.55 0.33 0.11 0.10 0.05 0.00 0.00 0.00 0.00 0.00 0.00 0.00 0.00 0.00 0.00 0.00 0.00 0.00 0.00 0.00 0.00 0.00 0.01 0.01 0.02 0.03 0.06 0.10 0.10 0.09 0.09 0.09 0.09 0.09
0.55 0.46 0.30 0.38 0.44 0.49 0.45 0.54 0.60 0.43 0.26 0.13 0.10 0.09 0.03 0.00 0.00 0.00 0.00 0.00 0.00 0.00 0.00 0.00 0.00 0.00 0.00 0.00 0.00 0.00 0.00 0.00 0.01 0.01 0.01 0.02 0.03 0.06 0.07 0.09 0.08 0.09 0.10 0.10
0.41 0.40 0.24 0.28 0.33 0.36 0.46 0.50 0.39 0.47 0.31 0.18 0.11 0.07 0.02 0.00 0.00 0.00 0.00 0.00 0.00 0.00 0.00 0.00 0.00 0.00 0.00 0.00 0.00 0.00 0.00 0.01 0.02 0.02 0.02 0.02 0.02 0.04 0.06 0.06 0.07 0.08 0.09 0.09
0.40 0.51 0.34 0.35 0.48 0.45 0.44 0.42 0.52 0.81 0.59 0.28 0.11 0.05 0.01 0.00 0.00 0.00 0.00 0.00 0.00 0.00 0.00 0.00 0.00 0.00 0.00 0.00 0.00 0.00 0.01 0.02 0.03 0.03 0.03 0.02 0.03 0.04 0.05 0.05 0.05 0.05 0.06 0.07
0.39 0.61 0.50 0.52 0.61 0.43 0.44 0.52 0.60 0.61 0.47 0.38 0.17 0.05 0.02 0.01 0.01 0.01 0.01 0.00 0.00 0.00 0.00 0.00 0.00 0.00 0.00 0.00 0.00 0.01 0.02 0.03 0.04 0.03 0.03 0.03 0.03 0.03 0.04 0.04 0.04 0.04 0.05 0.05
0.37 0.63 0.55 0.40 0.35 0.27 0.33 0.35 0.44 0.59 0.43 0.33 0.22 0.06 0.01 0.01 0.02 0.03 0.03 0.02 0.01 0.00 0.00 0.00 0.00 0.00 0.00 0.01 0.02 0.03 0.04 0.05 0.04 0.03 0.03 0.03 0.04 0.04 0.04 0.04 0.03 0.03 0.04 0.04
0.39 0.67 0.67 0.48 0.46 0.45 0.44 0.33 0.35 0.54 0.70 0.50 0.33 0.09 0.02 0.02 0.04 0.07 0.07 0.06 0.04 0.03 0.02 0.02 0.02 0.01 0.02 0.02 0.04 0.05 0.05 0.04 0.03 0.04 0.04 0.03 0.03 0.03 0.04 0.04 0.03 0.03 0.03 0.03
0.55 0.72 0.64 0.52 0.44 0.48 0.47 0.34 0.38 0.78 0.92 0.44 0.20 0.09 0.06 0.06 0.09 0.11 0.12 0.11 0.08 0.05 0.04 0.04 0.03 0.04 0.03 0.04 0.04 0.04 0.03 0.03 0.04 0.04 0.04 0.04 0.04 0.04 0.04 0.04 0.03 0.03 0.02 0.02
0.57 0.75 0.56 0.37 0.30 0.41 0.43 0.38 0.46 0.70 0.62 0.48 0.21 0.14 0.14 0.13 0.15 0.13 0.12 0.09 0.06 0.05 0.05 0.05 0.05 0.05 0.05 0.04 0.03 0.02 0.03 0.03 0.04 0.05 0.05 0.05 0.04 0.04 0.04 0.04 0.03 0.02 0.02 0.02
0.37 0.58 0.55 0.42 0.29 0.37 0.40 0.36 0.41 0.47 0.42 0.39 0.30 0.27 0.16 0.15 0.14 0.13 0.12 0.08 0.06 0.05 0.05 0.05 0.05 0.05 0.06 0.06 0.04 0.03 0.04 0.05 0.05 0.06 0.07 0.07 0.06 0.05 0.04 0.04 0.03 0.02 0.02 0.02
0.24 0.42 0.59 0.49 0.32 0.40 0.49 0.39 0.39 0.38 0.27 0.26 0.29 0.22 0.15 0.16 0.16 0.13 0.11 0.08 0.05 0.03 0.03 0.03 0.02 0.03 0.03 0.03 0.03 0.05 0.06 0.07 0.07 0.07 0.07 0.07 0.06 0.05 0.04 0.03 0.03 0.04 0.04 0.04
0.11 0.27 0.49 0.41 0.37 0.47 0.39 0.28 0.27 0.26 0.19 0.18 0.18 0.12 0.12 0.15 0.15 0.11 0.08 0.07 0.04 0.03 0.02 0.01 0.01 0.01 0.02 0.02 0.02 0.03 0.04 0.05 0.06 0.06 0.06 0.05 0.05 0.06 0.06 0.06 0.07 0.09 0.11 0.12
0.06 0.21 0.39 0.31 0.27 0.21 0.14 0.11 0.13 0.16 0.14 0.11 0.11 0.10 0.09 0.11 0.14 0.12 0.11 0.09 0.06 0.04 0.03 0.01 0.01 0.01 0.02 0.02 0.02 0.03 0.04 0.05 0.06 0.07 0.09 0.09 0.10 0.14 0.17 0.19 0.19 0.19 0.18 0.17
0.07 0.15 0.30 0.21 0.19 0.11 0.06 0.03 0.02 0.06 0.07 0.04 0.06 0.08 0.09 0.10 0.12 0.11 0.09 0.08 0.08 0.06 0.05 0.04 0.03 0.03 0.04 0.04 0.04 0.06 0.09 0.12 0.14 0.17 0.21 0.24 0.25 0.30 0.32 0.31 0.28 0.23 0.18 0.13
0.09 0.14 0.18 0.14 0.12 0.03 0.01 0.01 0.01 0.04 0.04 0.01 0.02 0.06 0.09 0.09 0.09 0.08 0.07 0.07 0.07 0.08 0.09 0.10 0.11 0.13 0.14 0.14 0.17 0.21 0.24 0.29 0.30 0.30 0.34 0.36 0.32 0.30 0.28 0.24 0.20 0.14 0.09 0.05
0.03 0.05 0.06 0.06 0.06 0.02 0.01 0.01 0.00 0.01 0.01 0.00 0.01 0.02 0.05 0.07 0.08 0.08 0.06 0.04 0.05 0.06 0.08 0.12 0.17 0.23 0.26 0.29 0.35 0.39 0.39 0.40 0.37 0.34 0.33 0.30 0.26 0.22 0.18 0.13 0.08 0.04 0.02 0.01
0.01 0.01 0.02 0.02 0.01 0.01 0.00 0.00 0.00 0.00 0.00 0.00 0.01 0.02 0.03 0.06 0.06 0.06 0.06 0.04 0.02 0.03 0.05 0.08 0.13 0.16 0.20 0.25 0.29 0.32 0.31 0.27 0.24 0.22 0.20 0.16 0.13 0.09 0.06 0.03 0.01 0.01 0.00 0.00
0.02 0.01 0.01 0.00 0.00 0.00 0.00 0.00 0.00 0.00 0.00 0.00 0.01 0.01 0.02 0.03 0.03 0.02 0.02 0.03 0.02 0.02 0.01 0.02 0.03 0.04 0.05 0.06 0.09 0.11 0.10 0.09 0.07 0.06 0.05 0.03 0.02 0.01 0.00 0.00 0.00 0.00 0.00 0.00
0.02 0.02 0.01 0.01 0.00 0.00 0.00 0.00 0.00 0.00 0.00 0.00 0.00 0.00 0.01 0.01 0.01 0.01 0.01 0.01 0.01 0.01 0.00 0.01 0.01 0.01 0.02 0.02 0.02 0.02 0.02 0.01 0.01 0.01 0.00 0.00 0.00 0.00 0.00 0.00 0.00 0.00 0.00 0.00
0.00 0.00 0.00 0.00 0.00 0.00 0.00 0.00 0.00 0.00 0.00 0.00 0.00 0.00 0.00 0.00 0.00 0.01 0.01 0.00 0.00 0.00 0.00 0.00 0.00 0.00 0.00 0.00 0.00 0.00 0.00 0.00 0.00 0.00 0.00 0.00 0.00 0.00 0.00 0.00 0.00 0.00 0.00 0.00